Flag for U.S.A. Weather past 2 weeks in Little Rock, Arkansas, U.S.A.

Now
62 °F

Scattered clouds.


Feels Like: 62 °F
Forecast: 37 / 66 °F
Wind: 9 mph from Southeast

Location: Adams Field

Current Time: Jan 28, 2015 at 2:57:18 PM

Latest Report: Jan 28, 2015 at 1:53 PM


Visibility: 10 mi

Pressure: 30.14 "Hg

Humidity: 38%

Dew point: 36 °F

Location of Little RockLocation

Historic Weather in Little Rock — Graph

°F

Little Rock temperature yesterday

Maximum temperature yesterday: 67 °F (at 2:53 PM)
Minimum temperature yesterday: 41 °F (at 3:53 AM)
Average temperature yesterday: 52 °F

Past Weeks' High & Low Weather Summary

 TemperatureHumidityPressure
High68 °F (Jan 18, 2:53 PM)89% (Jan 28, 5:53 AM)30.50 "Hg (Jan 28, 5:53 AM)
Low22 °F (Jan 14, 3:53 AM)12% (Jan 18, 2:53 PM)29.74 "Hg (Jan 25, 11:53 AM)
Average45 °F56%30.15 "Hg
* Reported Jan 13 1:53 PM — Jan 28 1:53 PM, Little Rock, Weather by CustomWeather, © 2014

Note: Actual official high and low records may vary slightly from our data, if they occured in-between our weather recording intervals... More about our weather records

Advertising

Little Rock weather history for previous 24 hours

 ConditionsComfort  
Time TempWeatherWind HumidityBarometerVisibility
1:53 PM
Jan 28
62 °FScattered clouds.9 mph38%30.14 "Hg10 mi
12:53 PM60 °FScattered clouds.10 mph38%30.17 "Hg10 mi
11:53 AM57 °FPassing clouds.9 mph42%30.23 "Hg10 mi
10:53 AM53 °FPassing clouds.12 mph51%30.26 "Hg10 mi
9:53 AM49 °FPassing clouds.8 mph59%30.28 "Hg10 mi
8:53 AM43 °FPassing clouds.9 mph74%30.27 "Hg7 mi
7:53 AM37 °FPassing clouds.3 mph86%30.27 "Hg10 mi
6:53 AM36 °FPassing clouds.3 mph89%30.26 "Hg10 mi
5:53 AM37 °FClear.5 mph89%30.24 "Hg9 mi
4:53 AM38 °FClear.No wind86%30.22 "Hg10 mi
3:53 AM38 °FClear.No wind86%30.22 "Hg10 mi
2:53 AM39 °FClear.No wind86%30.22 "Hg10 mi
1:53 AM40 °FClear.No wind83%30.21 "Hg10 mi
12:53 AM41 °FClear.No wind80%30.20 "Hg10 mi
11:53 PM
Jan 27
42 °FClear.6 mph73%30.20 "Hg10 mi
10:53 PM45 °FClear.No wind68%30.19 "Hg10 mi
9:53 PM47 °FClear.6 mph66%30.19 "Hg10 mi
8:53 PM50 °FClear.7 mph61%30.18 "Hg10 mi
7:53 PM50 °FClear.3 mph57%30.17 "Hg10 mi
6:53 PM52 °FClear.5 mph55%30.16 "Hg10 mi
5:53 PM57 °FClear.7 mph44%30.14 "Hg10 mi
4:53 PM67 °FSunny.No wind23%30.13 "Hg10 mi
3:53 PM66 °FSunny.3 mph25%30.12 "Hg10 mi
2:53 PM67 °FSunny.No wind24%30.12 "Hg10 mi
Weather by CustomWeather, © 2014

See weather overviewHow to use our weather pages